[Date Prev][Date Next][Thread Prev][Thread Next][Date Index][Thread Index]

[jamsat-news:1471] jas2info #224



========================   最新情報   ==============================

        Last updated :TUE.01MAY2001  11:00 (JST) #224
        
====================================================================
   
  1)アマチュア通信衛星情報、FOシリーズの軌道要素、テレメトリ、QSOの
   状況等をまとめてみました.
   
   FO−29の2001年5月1日(火)の9:20(JST)のパスでは
  JARLのホームページのとうりアナログ運用でした。観測したテレメトリーと
  分析結果を掲載しておきます.

AS23227C1   1May2001
9:20-9:38(JST)
Freq.435.804-.796MHz

HI HI AE C7 88 55 00 D4 B9 B5 09 52 6B 3D 6B 60 91 90 B0 7C B1 AE B0 B0 AD 
HI HI AE C7 88 55 00 D4 B9 B5 09 52 75 3D 66 60 91 8F B0 7B B1 AE B0 B0 AD 
HI HI AE C7 88 55 00 D4 B9 B5 09 52 7C 3E 62 5F 91 8F B0 84 B0 AE B0 B0 AD 
HI HI AE C7 88 55 00 D4 B9 B5 09 52 82 41 65 5F 91 8F AF 72 B0 AD B0 B0 AD 
HI HI AE C7 88 55 00 D4 B9 B5 09 52 86 44 62 5F 91 8F B0 77 B1 AD B0 B0 AD 
HI HI AE C7 88 55 00 D4 B9 B5 09 52 87 47 64 60 91 8F B0 C0 B0 AD B0 B0 AD 
HI HI AE C7 88 55 00 D4 B9 B5 09 52 86 4B 67 60 91 8F B0 84 B0 AD AF B0 AD 
HI HI AE C7 88 55 00 D4 B9 B5 09 52 83 4F 68 60 92 90 B0 6C B0 AD AF B0 AD 
HI HI AE C7 88 55 00 D4 B9 B5 09 52 7D 53 69 60 92 90 B0 6A B0 AD AF B0 AD 
HI HI AE C7 88 55 00 D4 B9 B5 09 52 76 56 6D 60 92 90 B0 69 B0 AC AF B0 AD 
HI HI AE C7 88 55 00 D4 B9 B5 09 52 6C 59 71 60 92 90 B0 64 B0 AC AF B0 AD 
HI HI AE C7 88 55 00 D4 B9 B5 09 52 62 5C 74 60 92 90 B0 92 B0 AC AF B0 AD 
HI HI AE C7 88 55 00 D4 B9 B5 09 52 56 5E 74 60 92 90 B0 7E B0 AC AE B0 AD 
HI HI AE C7 88 55 00 D4 B9 B5 09 52 4B 60 74 60 92 91 B0 6C B0 AC AE B0 AD 
HI HI AE C7 88 55 00 D4 B9 B5 09 52 40 62 75 60 92 91 B0 89 B0 AC AE B0 AD 
HI HI AE C7 88 55 00 D4 B9 B5 09 52 35 64 76 60 93 91 B0 74 B0 AB AE AF AD 
HI HI AE C7 88 55 00 D4 B9 B5 09 52 2D 65 76 60 92 91 B0 6D B0 AB AE AF AD 
HI HI AE C7 88 55 00 D4 B9 B5 09 52 27 68 75 60 93 91 B0 75 B0 AB AE AF AD 
HI HI AE C7 88 55 00 D4 B9 B5 09 52 23 6A 75 60 93 91 B0 93 B0 AB AE AF AD 
HI HI AE C7 88 55 00 D4 B9 B5 09 52 22 6E 79 60 93 91 B0 5D B0 AB AD AF AD 
HI HI AE C7 88 55 00 D4 B9 B5 09 52 24 72 7A 60 93 91 B0 BE AF AB AD AF AD 
HI HI AE C7 88 55 00 D4 B9 B5 09 52 2A 77 79 60 93 91 B0 6C AF AB AD AF AD 
HI HI AE C7 88 55 00 D4 B9 B5 09 52 32 7C 77 60 93 91 B0 85 AF AB AD AF AD  

AS23160C1  26Apr2001
10:29-10:42(JST)
Freqq.435.800-.789MHz

HI HI AE C7 88 55 00 D4 55 6D 09 1E 5A 5F 91 8F B0 7C B0 93 AF AE AF AF AD 
HI HI AE C7 88 55 00 D4 55 6D 09 1E 6F 50 79 5F 91 8F B0 91 AF AE AF AF AD 
HI HI AE C7 88 55 00 D4 55 6D 09 1E 71 46 7D 5F 91 8F B0 83 AE AF AF AF AD 
HI HI AE C7 88 55 00 D4 55 6D 09 1E 71 3E 81 5F 91 90 B0 6F AF AE AF AF AD 
HI HI AE C7 88 55 00 D4 55 6D 09 1E 6F 36 85 60 91 90 B0 66 B0 AE AF AF AD 
HI HI AE C7 88 55 00 D4 55 6D 09 1E 6B 30 88 5F 91 8F B0 AF AF AE AE AF AD 
HI HI AE C7 88 55 00 D4 55 6D 09 1E 66 2C 8A 60 92 90 B0 7A AF AE AE AF AD 
HI HI AE C7 88 55 00 D4 55 6D 09 1E 5F 2B 8B 5F 92 90 B0 8C AF AE AE AF AD 
HI HI AE C7 88 55 00 D4 55 6D 09 1E 58 2D 8B 50 92 90 B0 A1 AF AE AE AF AD 
HI HI AE C7 88 55 00 D4 55 6D 09 1E 50 32 8A 60 92 90 B0 85 B0 AD AE AF AD 
HI HI AE C7 88 55 00 D4 55 6D 09 1E 48 3A 89 62 92 92 B0 77 B0 AD AD AE AD 
HI HI AE C7 88 55 00 D4 55 6D 09 1E 41 45 86 60 92 91 B0 57 AF AD AD AE AD 
HI HI AE C7 88 55 00 D4 55 6D 09 1E 3B 51 83 60 92 91 B0 7A B0 AD AD AE AD 
HI HI AE C7 88 55 00 D4 55 6D 09 1E 37 5F 81 60 93 91 B0 6D AF AD AD AE AD 
HI HI AE C7 88 55 00 D4 55 6D 09 1E 34 6D 86 60 92 91 B0 7E AF AD AD AE AD 
HI HI AE C7 88 55 00 D4 55 6D 09 1E 33 6E 89 60 92 91 B0 6A AF AD AC AE AD 
 
 ------------------------ FO-29の軌道要素 ------------------------------        
 
  ■ 軌道要素1:「jamsat−keps:1097」より         
          SB KEPS @ AMSAT  $ORB01116.N
          2Line Orbital Elements 01116.AMSAT

HR AMSAT ORBITAL ELEMENTS FOR AMATEUR SATELLITES IN NASA FORMAT
FROM WA5QGD FORT WORTH,TX April 26, 2001
SEND SUBSCRIBE/UNSUBSCRIBE TO majordomo@amsat.org ONLY
BID: ORB01116.N

 DECODE 2-LINE ELSETS WITH THE FOLLOWING KEY:
 1 AAAAAU 00  0  0 BBBBB.BBBBBBBB  .CCCCCCCC  00000-0  00000-0 0  DDDZ
 2 AAAAA EEE.EEEE FFF.FFFF GGGGGGG HHH.HHHH III.IIII JJ.JJJJJJJJKKKKKZ
 KEY: A-CATALOGNUM B-EPOCHTIME C-DECAY D-ELSETNUM E-INCLINATION F-RAAN
 G-ECCENTRICITY H-ARGPERIGEE I-MNANOM J-MNMOTION K-ORBITNUM Z-CHECKSUM

FO-29
1 24278U 96046B   01115.68760166  .00000045  00000-0  79703-4 0 04259
2 24278 098.5523 348.0204 0351565 137.7911 225.0855 13.52768971231543

 ■ 軌道要素2:「jamsat−keps:1096」より                     

        SB KEPS @ AMSAT  $ORB01116.O
        Orbital Elements  01116.OSCAR

HR AMSAT ORBITAL ELEMENTS FOR OSCAR SATELLITES
FROM WA5QGD FORT WORTH,TX April 26, 2001
SEND SUBSCRIBE/UNSUBSCRIBE TO majordomo@amsat.org ONLY
BID: ORB01116.O
TO ALL RADIO AMATEURS BT
 
Satellite: FO-29
Catalog number: 24278
Epoch time:      01115.68760166
Element set:    0425
Inclination:      098.5523 deg
RA of node:       348.0204 deg
Eccentricity:    0.0351565
Arg of perigee:   137.7911 deg
Mean anomaly:     225.0855 deg
Mean motion:   13.52768971 rev/day
Decay rate:        4.5e-07 rev/day^2
Epoch rev:           23154
Checksum:              311

-------------------  FO-29(JAS-2)のテレメトリに関する情報  ---------------------- 
 
2)上記5月1日(火)のテレメトリ最終行を分析しておきます.

AS23227C1   1May2001
9:20-9:38(JST)
Freq.435.804-.796MHz

HI HI AE C7 88 55 00 D4 B9 B5 09 52 32 7C 77 60 93 91 B0 85 AF AB AD AF AD  

テレメトリ   内 容       換算算値 単 位  
3C	磁気センサーZ	=	24509.8	[nT]
3D	磁気センサX軸	=	60784.3	[nT]
4A	太陽電池発生電	=	 1166.7	[mA]
4B	B充放電電流	=	 -118.4	[mA]
4C	B端子電圧	=	   15.8	[V]
4D	B中間端子電圧	=	    7.0	[V]
5A	バス電圧	=	   17.3	[V]
5B	JTA送信電力	=	  766.4	[mW]
5C 	構体温度1	=	   13.9	[℃]
5D	構体温度2	=	   15.5	[℃]
6A	構体温度3	=	   14.7	[℃]
6B	構体温度4	=	   13.9	[℃]
6C	Bセル温度	=	   14.7	[℃]
   	
 ===========================  FO-29(ふじ3号)のQSO情報等 ======================
   
 3)[jamsat-bb:

 ===============================================================================
   4)JARL のホームページに運用予定が記載されていましたのでご紹介します.
       ( http://www.jarl.or.jp/Japanese/3_Fuji/new/uy.htm )

        ■ ふじ3号/FOー29/JAS-2 ■  
   
     *** 運用予定について ***

     4月2日 〜 7月2日 アナログ系運用

  *なお,運用予定は都合により変更することがありますので予めご了承願います。

 照会先 : lab@jarl.or.jp

 最新の情報はテレホンサービス(03−3942−1000)をお聞きください。  
 以後の運用につきましては平成13年7月上旬にお知らせ致します。    
    
-----------------------    FO−20(JAS-1b)道要素   -------------------------
  5)
  ■ 軌道要素1 :出典はFO-29「ふじ3号」に同じ.
  
FO-20
1 20480U 90013C   01115.78124034 -.00000006  00000-0  51948-4 0 03323
2 20480 099.0650 193.9930 0541019 067.8141 297.9443 12.83292390525375
 
  ■ 軌道要素2 :出典はFO−29「ふじ3号」に同じ.
               
Satellite: FO-20
Catalog number: 20480
Epoch time:      01115.78124034
Element set:    0332
Inclination:      099.0650 deg
RA of node:       193.9930 deg
Eccentricity:    0.0541019
Arg of perigee:   067.8141 deg
Mean anomaly:     297.9443 deg
Mean motion:   12.83292390 rev/day
Decay rate:       -6.0e-08 rev/day^2
Epoch rev:           52537
Checksum:              289
 
 --------------------------------------------------------------------------------
 
         ■ ふじ2号/FO−20/JAS-1b ■      
            
          「ふじ2号」 現況                                                                                  
             
   JAS-1b(ふじ2号)のCWテレメトリ信号に,1997年10月12日12時(JST)の
 日本上空通過時,3桁の数字が繰り返されるはずが3個の長音の繰り返しとなっているという
 異常が発見されました。この不具合は次の通過時からは回復していましたが13日15時20分の
 通過時に再び観測されました。現在はA0の送信が続いています。衛星のアナログ系中継モード
 動作は異常が無く,正常時のテレメトリ内容からは衛星の動作に異常は認められません。従って,
 直ちに衛星のミッションに影響することは無いと予想されますので,当面はアナログ系中継
 モードを継続します。衛星は既に打ち上げてから7年8ヶ月を経ておりますので,今後は監視を
 強化する予定です。アマチュア各位のレポートをお待ちします。
 -------------------------------------------------------------------------------- 
  1997年10月14日 00時35分 確認のテレメトリ音 151 KB (A0) 
  1997年10月14日 11時10分 確認のテレメトリ音 216 KB (異常キーイング) 

  以上 JARLのホ−ムページの http://www.jarl.or.jp/Japanese/3_Fuji/new/fuji.htm

===================== FO-20 ふじ2号 のテレメトリ観測結果 ====================

   12月22日(金)の12:21(JST)のパスの観測結果では以前観測した
 単一周波数のドップラー効果で周波数がずれていくのみの状態に戻っておりました。
                                         
   =============   JAS-2 (ふじ3号)と現在までの情報   ===========
  
  A.電話によるふじ3号の運用情報
      社団法人日本アマチュア連盟によるサービス
           TEL .   03− 3942 − 1000
  B.アマチュア無線FAXサービス
      JARLによるふじ3号の軌道情報(オービットカレンダー)
         FAX No.  03− 3233 −0055
  C.WWWブラウザで情報を簡単に見れる人のためにJAS−2
     ふじ3号の衛星としての運用されるまでの名前)の概要、打ち上げ
     までの状況、運用中における状況を説明したホームページを紹介し
     ておきます.
     社団法人日本アマチュア無線連盟(JARL)のホームページ

          http://www.jarl.or.jp/Japanese/3_Fuji/jasmenu.htm
 
     宇宙開発事業団(NASDA)ホームページ 
          http://www.nasda.go.jp/
         打上げ衛星 :地球観測プラットフォーム技術衛星(ADEOS) 
                       アマチュア衛星3号(JAS-2)
          http://yyy.tksc.nasda.go.jp/Home/Press/Press-j/jas-2_j.html        

  D.JAMSATによる軌道情報の活用
        JAMSATのホームページまたはjamsat−kepsの軌道要素より
      衛星の軌道情報を得る.
     JAMSATホームページ
               URL    http://www.jamsat.or.jp
       上記ホームページでは各地で行われるアマチュア通信衛星に関する
      ミューティングのお知らせや世界のアマチュア衛星に関する情報が
      満載されています.
 ========================================================================  
     JAMSATのメンバーのご協力によりJH6MME(高山 秀造)が
    執筆・編集を担当しております.ご指摘の意見、疑問やこのようにしたら
    というアイデアがありましたら小さなことでもかまいませんので気軽に下
    記アドレスまでご連絡ください.jamsat−newsからjas2
    infoへの転載をJH4PHW局坂井さんに担当して頂いております.  
                  E-mail : jh6mme@jamsat.or.jp : jh4phw@jamsat.or.jp
 ===============================   END  ===============================